EW8926 Pozzolo Formigaro IT current weather conditions

sailwx.info

Wind from 315 at 2 knots gusting 8

Air temperature 28.9° C
Dewpoint 19.8° C

Last reported at 2020-Aug-06 16:56 UTC.
Time now 2020-Aug-06 18:40 UTC

Location: N 44°48' E 008°47'.
View on Google Maps.

See reports from other nearby stations

  
Tides and Currents Weather Stations Pressure Air Temp Water Temp Dewpoint Dewpoint Depression Visibility Wind Speed Wind Dir Waves Ship Positions
date/time (UTC)wind fromknots sea level pressurealtimeterstation pressurevisibilityair tempwater tempwave heightnotes
2020-Aug-06 16:56 315 2 gusting 8 28.9
2020-Aug-06 15:41 333 1 gusting 7 30.6
2020-Aug-06 07:01 315 0 gusting 4 20.6
2020-Aug-05 23:26 164 18.3
2020-Aug-05 23:16 156 18.3
2020-Aug-05 23:06 156 18.3
2020-Aug-05 22:11 168 18.9
2020-Aug-05 21:36 172 19.4
2020-Aug-05 21:16 309 20.0
2020-Aug-05 20:16 309 21.7
2020-Aug-05 20:06 310 21.7
2020-Aug-05 11:36 042 1 gusting 6 26.7
2020-Aug-05 10:06 029 1 gusting 5 25.0
2020-Aug-05 09:56 020 1 gusting 5 25.0
2020-Aug-05 09:36 288 1 gusting 6 23.9
2020-Aug-05 09:16 335 1 gusting 4 23.3
2020-Aug-05 09:06 318 1 gusting 4 23.3
2020-Aug-05 08:56 299 1 gusting 5 23.3
2020-Aug-05 08:36 149 1 gusting 4 22.8
2020-Aug-05 08:26 155 0 gusting 4 22.2
2020-Aug-05 08:16 285 1 gusting 4 21.7
2020-Aug-05 08:06 314 1 gusting 4 21.1
2020-Aug-05 07:56 319 0 gusting 4 20.6
2020-Aug-05 07:36 318 0 gusting 2 20.0
2020-Aug-05 07:26 285 1 gusting 4 20.0
2020-Aug-05 06:56 315 0 gusting 4 19.4
2020-Aug-05 06:46 302 18.9
2020-Aug-05 06:36 155 18.9
2020-Aug-05 06:26 173 17.8
2020-Aug-05 06:06 140 16.1
2020-Aug-05 05:56 143 15.6
2020-Aug-05 05:46 143 15.6
2020-Aug-05 05:41 128 15.0
2020-Aug-05 05:36 158 15.0
2020-Aug-05 05:26 160 0 gusting 1 14.4
2020-Aug-05 05:16 160 14.4
2020-Aug-05 05:06 162 13.9
2020-Aug-05 04:56 162 13.9
2020-Aug-05 04:36 162 13.9
2020-Aug-05 04:26 162 13.9
2020-Aug-05 04:16 162 1 gusting 2 13.9
2020-Aug-05 04:06 152 1 gusting 4 13.9
2020-Aug-05 03:46 158 0 gusting 4 13.9
2020-Aug-05 03:36 154 0 gusting 2 13.9
2020-Aug-05 03:26 155 1 gusting 2 13.9
2020-Aug-05 03:16 162 0 gusting 4 14.4
2020-Aug-05 02:46 082 14.4
2020-Aug-05 02:36 122 14.4
2020-Aug-05 02:26 121 1 gusting 1 14.4
2020-Aug-05 02:21 105 1 gusting 1 14.4
2020-Aug-05 02:16 152 1 gusting 4 14.4
2020-Aug-05 02:06 161 0 gusting 2 14.4
2020-Aug-05 01:56 150 14.4
2020-Aug-05 01:46 153 0 gusting 2 14.4
2020-Aug-05 01:36 153 0 gusting 2 14.4
2020-Aug-05 01:26 130 14.4
2020-Aug-05 01:21 129 15.0
2020-Aug-05 01:16 129 15.0
2020-Aug-05 01:06 129 15.0
2020-Aug-05 00:56 152 15.0
2020-Aug-05 00:51 152 15.0
2020-Aug-05 00:46 158 15.0
2020-Aug-05 00:36 159 15.0
2020-Aug-05 00:26 159 15.6
2020-Aug-05 00:16 159 15.6
2020-Aug-05 00:06 159 15.6
2020-Aug-04 23:56 159 15.6
2020-Aug-04 23:51 159 16.1
2020-Aug-04 23:46 159 16.1
2020-Aug-04 23:41 159 16.1
2020-Aug-04 23:26 157 0 gusting 1 16.1
2020-Aug-04 23:16 156 0 gusting 1 16.1
2020-Aug-04 23:11 156 0 gusting 1 16.1
2020-Aug-04 23:06 169 16.1
2020-Aug-04 22:56 154 0 gusting 2 16.7
2020-Aug-04 22:46 154 16.7
2020-Aug-04 22:11 155 17.2
2020-Aug-04 21:51 144 17.2
2020-Aug-04 21:46 138 0 gusting 1 17.8
2020-Aug-04 21:36 138 0 gusting 4 17.8
2020-Aug-04 21:26 155 18.3
2020-Aug-04 21:16 132 18.3
2020-Aug-04 20:56 169 18.9
2020-Aug-04 20:51 307 19.4
2020-Aug-04 20:46 307 19.4
2020-Aug-04 20:41 307 19.4
2020-Aug-04 20:36 307 19.4
2020-Aug-04 20:16 307 20.6
2020-Aug-04 19:56 308 21.1
2020-Aug-04 19:51 308 21.1
2020-Aug-04 19:46 308 21.1
2020-Aug-04 19:31 307 21.7
2020-Aug-04 19:26 307 21.7
2020-Aug-04 19:16 307 22.2
2020-Aug-04 18:41 307 23.9